This demonstration page uses our WeatherBlox Daily Observations layout. Learn more.

Left ArrowRight Arrow

Hourly Observations for March 20, 2021

Temp ( °F °C ) Dew Point ( °F °C ) Humidity (%) Winds ( mph kmh ) Pressure ( in mb ) Visibility ( mi km ) Precip ( " mm )
12:53 am 00:53 Cloudy 53 11.7 32 0 45 45 ENE 16 26 30.27 1025 10 16 0.00 0.00
1:53 am 01:53 Cloudy 52 11.1 30 -1.1 43 43 E 16 26 30.28 1025 10 16 0.00 0.00
3:53 am 03:53 Clear 48 8.9 31 -0.6 52 52 E 10 17 30.31 1026 10 16 0.00 0.00
4:53 am 04:53 Clear 46 7.8 32 0 58 58 ENE 10 17 30.32 1027 10 16 0.00 0.00
5:53 am 05:53 Clear 44 6.7 30 -1.1 58 58 ENE 10 17 30.35 1028 10 16 0.00 0.00
6:53 am 06:53 Clear 43 6.1 27 -2.8 53 53 ENE 9 15 30.37 1029 10 16 0.00 0.00
7:53 am 07:53 Sunny 42 5.6 28 -2.2 58 58 ENE 10 17 30.40 1029 10 16 0.00 0.00
8:53 am 08:53 Sunny 43 6.1 26 -3.3 51 51 ENE 18 30 30.43 1030 10 16 0.00 0.00
9:53 am 09:53 Sunny 45 7.2 22 -5.6 40 40 ENE 16 26 30.44 1031 10 16 0.00 0.00
10:53 am 10:53 Sunny 47 8.3 20 -6.7 34 34 ENE 17 28 30.44 1031 10 16 0.00 0.00
11:53 am 11:53 Sunny 49 9.4 17 -8.3 28 28 E 15 24 30.42 1030 10 16 0.00 0.00
12:53 pm 12:53 Sunny 52 11.1 19 -7.2 27 27 NNE 8 13 30.40 1029 10 16 0.00 0.00
1:53 pm 13:53 Sunny 53 11.7 17 -8.3 24 24 ENE 8 13 30.37 1029 10 16 0.00 0.00
2:53 pm 14:53 Sunny 56 13.3 17 -8.3 22 22 NE 14 22 30.34 1027 10 16 0.00 0.00
3:53 pm 15:53 Sunny 58 14.4 15 -9.4 18 18 ENE 12 19 30.31 1027 10 16 0.00 0.00
4:53 pm 16:53 Sunny 58 14.4 15 -9.4 18 18 E 10 17 30.30 1026 10 16 0.00 0.00
5:53 pm 17:53 Sunny 58 14.4 16 -8.9 19 19 NE 7 11 30.29 1026 10 16 0.00 0.00
6:53 pm 18:53 Sunny 57 13.9 17 -8.3 21 21 ENE 10 17 30.29 1026 10 16 0.00 0.00
7:53 pm 19:53 Clear 56 13.3 18 -7.8 22 22 E 7 11 30.31 1026 10 16 0.00 0.00
8:53 pm 20:53 Clear 54 12.2 18 -7.8 24 24 E 7 11 30.32 1027 10 16 0.00 0.00
9:53 pm 21:53 Clear 51 10.6 21 -6.1 31 31 E 3 6 30.34 1028 10 16 0.00 0.00
10:53 pm 22:53 Clear 48 8.9 23 -5 37 37 NE 6 9 30.36 1028 10 16 0.00 0.00
11:53 pm 23:53 Clear 48 8.9 23 -5 37 37 Calm 30.36 1028 10 16 0.00 0.00

Powered by AerisWeather